Location: Ellerstadt
(49.4644°N, 8.2615°E)
Time: 04:30:58
(UTC+00:00)

Cosmos 1066 Rocket - Pass Details

Date: 03 March 2021
Orbit: 799 x 894 km, 81.2° (Epoch: 11 April)

Event Time Altitude Azimuth Distance (km) Brightness Sun altitude
Rises 19:34:55 0° 346° (NNW) 3,435 7.8 -23.5°
Reaches altitude 10° 19:37:19 10° 346° (NNW) 2,509 7.1 -23.9°
Maximum altitude 19:43:02 79° 261° (W) 896 4.3 -24.8°
Enters shadow 19:45:46 33° 179° (S) 1,441 5.2 -25.2°
